Regional Weather Roundup
Issued by NWS

Home | Current Version | Previous Version | Text Only | Print | Product List | Glossary On
Versions: 1 2 3 4 5 6 7 8 9 10 11 12 13 14 15 16 17 18 19 20 21 22 23 24 25 26 27 28 29 30 31 32 33 34 35 36 37 38 39 40 41 42 43 44 45 46 47 48 49 50
000
ASUS44 KBMX 290410
RWRAL

ALABAMA REGIONAL WEATHER ROUNDUP
NATIONAL WEATHER SERVICE BIRMINGHAM AL
1100 PM CDT THU AUG 28 2014

NOTE: "FAIR" INDICATES FEW OR NO CLOUDS BELOW 12,000 FEET
WITH NO SIGNIFICANT WEATHER AND/OR OBSTRUCTIONS TO VISIBILITY.

THE REMARK "TC" DENOTES TEMPERATURE IN DEGREES CELSIUS.

ALZ001>011-014-016>018-020-290500-
NORTH ALABAMA

CITY           SKY/WX    TMP DP  RH WIND       PRES   REMARKS
MUSCLE SHOALS  CLEAR     72  66  81 CALM      30.00R
HUNTSVILLE     CLEAR     77  68  73 E5        30.00S
DECATUR        CLEAR     75  67  76 CALM      30.00S
HALEYVILLE     FAIR      69  65  87 CALM      30.04S
GADSDEN        CLEAR     68  61  77 CALM      30.02R
$$

ALZ012-013-022-023-030>036-040>044-290500-
WEST CENTRAL ALABAMA

CITY           SKY/WX    TMP DP  RH WIND       PRES   REMARKS
TUSCALOOSA     CLEAR     74  67  78 CALM      29.99R
$$

ALZ015-024>027-033>036-040>044-290500-
CENTRAL ALABAMA

CITY           SKY/WX    TMP DP  RH WIND       PRES   REMARKS
BIRMINGHAM     CLEAR     75  60  59 SE3       30.03S
MONTGOMERY     MOCLDY    72  66  81 S3        30.00R
SHELBY CO ARPT PTCLDY    72  64  76 CALM      30.01S
MAXWELL AFB    MOCLDY    73  71  94 CALM      30.00R
GREENVILLE     FAIR      72  68  87 CALM      30.01R
$$

ALZ019-021-028-029-037-038-045>048-290500-
EAST CENTRAL ALABAMA

CITY           SKY/WX    TMP DP  RH WIND       PRES   REMARKS
ANNISTON       CLEAR     68  64  87 SE3       30.03S
ALEXANDER CITY PTCLDY    72  65  81 CALM      30.03R
AUBURN         CLEAR     72  59  64 N3        30.06R
$$

ALZ051>064-290500-
SOUTHWEST ALABAMA

CITY           SKY/WX    TMP DP  RH WIND       PRES   REMARKS
MOBILE         PTCLDY    73  73 100 CALM      30.00S
BROOKLEY FIELD PTCLDY    75  73  93 CALM      30.00S
EVERGREEN      PTCLDY    76  67  73 CALM      30.01R
$$

ALZ049-050-065>069-290500-
SOUTHEAST ALABAMA

CITY           SKY/WX    TMP DP  RH WIND       PRES   REMARKS
DOTHAN         PTCLDY    72  63  73 CALM      30.06R
OZARK          PTCLDY    75  67  77 W1        30.02R
TROY           PTCLDY    71  69  93 CALM      30.02R
EUFAULA        FAIR      68  64  87 CALM      30.01R
$$



USA.gov is the U.S. government's official web portal to all federal, state and local government web resources and services.